User: anonymous   Login
Location: *
(37.5724°S, 58.0067°E)
Time: 03:02:56
(UTC+00:00)
Language:

ALOS - Orbit

View from above orbital plane
View from above orbital plane
View from above satellite
View from above satellite

Ground track
Ground track

The orbit data is extracted from the following two-line orbital elements,

1 28931U 06002A   20339.67815985  .00000251  00000-0  57851-4 0  9995
2 28931  97.8627 317.2330 0000457  39.8934 320.2317 14.62769170792587
Epoch (UTC): 04 December 2020 16:16:33
Eccentricity: 0.0000457
inclination: 97.8627°
perigee height: 684 km
apogee height: 684 km
right ascension of ascending node: 317.2330°
argument of perigee: 39.8934°
revolutions per day: 14.62769170
mean anomaly at epoch: 320.2317°
orbit number at epoch: 79258

The dashed part of the orbit path shows where the satellite is in the earth's shadow,  

DLR